NSZ3303 EDDB-EKCH

Flight info

Callsign NSZ3303
Flight time 0h 46m
Altitude 36000
Route GERGA3Q GERGA M725 RENKI Y89 USEDU DCT BINZE Z14 BANKU DCT KOSEB T298 MONAK
Aircraft B738/M-SDE2E3FGHIRWXY/LB1

Departure

Time 2026-05-07 16:22
Airport Berlin Brandenburg Airport (EDDB)

Arrival

Time 2026-05-07 17:08
Airport Copenhagen Kastrup Airport (EKCH)
Time Latitude Longitude Altitude Speed Heading
2026-05-07 15:15 52.36786 13.50742 154 ft 0 kts 159°
2026-05-07 16:11 52.36803 13.50732 154 ft 4 kts 159°
2026-05-07 16:11 52.36823 13.50719 154 ft 3 kts 160°
2026-05-07 16:12 52.36848 13.50711 154 ft 4 kts 194°
2026-05-07 16:12 52.36868 13.50732 154 ft 4 kts 243°
2026-05-07 16:12 52.36871 13.50740 154 ft 0 kts 249°
2026-05-07 16:15 52.36867 13.50722 154 ft 4 kts 249°
2026-05-07 16:15 52.36848 13.50643 154 ft 11 kts 249°
2026-05-07 16:15 52.36818 13.50517 154 ft 12 kts 249°
2026-05-07 16:15 52.36788 13.50390 154 ft 12 kts 249°
2026-05-07 16:16 52.36759 13.50270 154 ft 8 kts 249°
2026-05-07 16:16 52.36750 13.50234 154 ft 0 kts 249°
2026-05-07 16:16 52.36750 13.50231 154 ft 1 kts 249°
2026-05-07 16:17 52.36739 13.50185 154 ft 8 kts 249°
2026-05-07 16:17 52.36730 13.50093 154 ft 9 kts 285°
2026-05-07 16:17 52.36771 13.50026 154 ft 9 kts 314°
2026-05-07 16:17 52.36774 13.49927 154 ft 10 kts 250°
2026-05-07 16:18 52.36744 13.49802 154 ft 14 kts 249°
2026-05-07 16:18 52.36702 13.49623 154 ft 19 kts 249°
2026-05-07 16:18 52.36653 13.49418 154 ft 19 kts 249°
2026-05-07 16:18 52.36605 13.49217 153 ft 19 kts 249°
2026-05-07 16:19 52.36559 13.49021 153 ft 18 kts 249°
2026-05-07 16:19 52.36514 13.48832 153 ft 17 kts 249°
2026-05-07 16:19 52.36471 13.48651 153 ft 17 kts 249°
2026-05-07 16:19 52.36436 13.48497 153 ft 12 kts 258°
2026-05-07 16:20 52.36482 13.48394 153 ft 12 kts 336°
2026-05-07 16:20 52.36560 13.48343 153 ft 12 kts 339°
2026-05-07 16:20 52.36636 13.48294 153 ft 12 kts 339°
2026-05-07 16:20 52.36711 13.48291 153 ft 11 kts 38°
2026-05-07 16:21 52.36751 13.48424 153 ft 19 kts 69°
2026-05-07 16:21 52.36886 13.48999 154 ft 91 kts 69°
2026-05-07 16:21 52.37193 13.50305 176 ft 150 kts 70°
2026-05-07 16:21 52.37589 13.51990 711 ft 162 kts 70°
2026-05-07 16:22 52.37997 13.53746 1528 ft 166 kts 67°
2026-05-07 16:22 52.38409 13.55518 2346 ft 172 kts 67°
2026-05-07 16:22 52.38860 13.57437 2897 ft 192 kts 66°
2026-05-07 16:22 52.39380 13.59612 3156 ft 216 kts 66°
2026-05-07 16:23 52.39949 13.61998 3472 ft 238 kts 67°
2026-05-07 16:23 52.40567 13.64604 4087 ft 251 kts 68°
2026-05-07 16:23 52.41206 13.67305 4918 ft 258 kts 68°
2026-05-07 16:23 52.41858 13.70065 5769 ft 262 kts 68°
2026-05-07 16:24 52.42515 13.72859 6677 ft 264 kts 68°
2026-05-07 16:24 52.43182 13.75692 7481 ft 269 kts 69°
2026-05-07 16:24 52.43921 13.78537 8275 ft 274 kts 58°
2026-05-07 16:24 52.45228 13.80829 9110 ft 278 kts 41°
2026-05-07 16:25 52.46697 13.82929 9884 ft 284 kts 41°
2026-05-07 16:25 52.48187 13.85086 10654 ft 287 kts 42°
2026-05-07 16:25 52.49704 13.87291 11206 ft 301 kts 42°
2026-05-07 16:25 52.51334 13.89665 11401 ft 324 kts 42°
2026-05-07 16:26 52.53049 13.92168 11890 ft 334 kts 42°
2026-05-07 16:26 52.54794 13.94719 12561 ft 338 kts 42°
2026-05-07 16:26 52.56561 13.97308 13279 ft 342 kts 42°
2026-05-07 16:26 52.58352 13.99920 13972 ft 347 kts 40°
2026-05-07 16:27 52.60448 14.01875 14596 ft 351 kts 16°
2026-05-07 16:27 52.62863 14.02368 15317 ft 352 kts 356°
2026-05-07 16:27 52.65305 14.01915 16021 ft 355 kts 352°
2026-05-07 16:27 52.67761 14.01334 16699 ft 358 kts 351°
2026-05-07 16:28 52.70239 14.00741 17361 ft 362 kts 352°
2026-05-07 16:28 52.72748 14.00167 18052 ft 365 kts 352°
2026-05-07 16:28 52.75280 13.99614 18692 ft 368 kts 352°
2026-05-07 16:28 52.77832 13.99068 19260 ft 372 kts 352°
2026-05-07 16:29 52.80375 13.98529 19822 ft 375 kts 352°
2026-05-07 16:29 52.82971 13.97987 20405 ft 377 kts 352°
2026-05-07 16:29 52.85581 13.97442 20981 ft 380 kts 353°
2026-05-07 16:29 52.88218 13.96890 21519 ft 383 kts 353°
2026-05-07 16:30 52.90872 13.96369 22045 ft 387 kts 355°
2026-05-07 16:30 52.93576 13.96422 22664 ft 388 kts
2026-05-07 16:30 52.96265 13.96902 23303 ft 391 kts
2026-05-07 16:30 52.98978 13.97439 23842 ft 394 kts
2026-05-07 16:31 53.01709 13.97987 24354 ft 397 kts
2026-05-07 16:31 53.04462 13.98528 24881 ft 400 kts
2026-05-07 16:31 53.07239 13.99063 25377 ft 404 kts
2026-05-07 16:31 53.10033 13.99590 25924 ft 405 kts
2026-05-07 16:32 53.12842 14.00113 26408 ft 409 kts
2026-05-07 16:32 53.15697 14.00642 26816 ft 413 kts
2026-05-07 16:32 53.18558 14.01172 27335 ft 415 kts
2026-05-07 16:32 53.21438 14.01704 27740 ft 419 kts
2026-05-07 16:33 53.24346 14.02241 28144 ft 422 kts
2026-05-07 16:33 53.27279 14.02783 28595 ft 424 kts
2026-05-07 16:33 53.30218 14.03329 29026 ft 427 kts
2026-05-07 16:33 53.33181 14.03881 29410 ft 430 kts
2026-05-07 16:34 53.36168 14.04438 29802 ft 433 kts
2026-05-07 16:34 53.39167 14.04998 30165 ft 435 kts
2026-05-07 16:34 53.42185 14.05561 30490 ft 438 kts
2026-05-07 16:34 53.45232 14.06130 30682 ft 443 kts
2026-05-07 16:35 53.48299 14.06704 31060 ft 444 kts
2026-05-07 16:35 53.51375 14.07281 31390 ft 446 kts
2026-05-07 16:35 53.54466 14.07862 31747 ft 446 kts
2026-05-07 16:35 53.57543 14.08441 32245 ft 444 kts
2026-05-07 16:36 53.60619 14.08945 32552 ft 447 kts
2026-05-07 16:36 53.63725 14.08754 33000 ft 445 kts 352°
2026-05-07 16:36 53.66736 14.07773 33563 ft 441 kts 347°
2026-05-07 16:36 53.69739 14.06595 33786 ft 445 kts 346°
2026-05-07 16:37 53.72765 14.05374 34043 ft 447 kts 346°
2026-05-07 16:37 53.75777 14.04174 34489 ft 444 kts 346°
2026-05-07 16:37 53.78785 14.03001 34800 ft 444 kts 346°
2026-05-07 16:37 53.81764 14.01857 34988 ft 447 kts 346°
2026-05-07 16:38 53.84804 14.00701 35264 ft 447 kts 346°
2026-05-07 16:38 53.87831 13.99551 35624 ft 445 kts 346°
2026-05-07 16:38 53.90850 13.98403 35967 ft 444 kts 346°
2026-05-07 16:38 53.93864 13.97252 36119 ft 446 kts 346°
2026-05-07 16:39 53.96851 13.95843 36113 ft 446 kts 338°
2026-05-07 16:39 54.01408 13.92789 36081 ft 426 kts 335°
2026-05-07 16:40 54.05248 13.90036 36086 ft 406 kts 335°
2026-05-07 16:40 54.07806 13.88207 36085 ft 393 kts 335°
2026-05-07 16:40 54.10303 13.86443 35967 ft 385 kts 336°
2026-05-07 16:40 54.12811 13.84682 35051 ft 399 kts 336°
2026-05-07 16:41 54.15451 13.82837 33877 ft 420 kts 336°
2026-05-07 16:41 54.18183 13.80938 33087 ft 426 kts 337°
2026-05-07 16:41 54.20918 13.79041 32718 ft 421 kts 337°
2026-05-07 16:41 54.23603 13.77179 32479 ft 412 kts 336°
2026-05-07 16:42 54.26231 13.75354 32212 ft 406 kts 336°
2026-05-07 16:42 54.28546 13.73745 31833 ft 404 kts 336°
2026-05-07 16:42 54.31140 13.71937 31367 ft 403 kts 336°
2026-05-07 16:42 54.33734 13.70127 30944 ft 401 kts 336°
2026-05-07 16:43 54.35993 13.68548 30588 ft 399 kts 336°
2026-05-07 16:43 54.38561 13.66750 30212 ft 397 kts 335°
2026-05-07 16:43 54.41110 13.64964 29787 ft 393 kts 335°
2026-05-07 16:43 54.43631 13.63195 29366 ft 390 kts 335°
2026-05-07 16:44 54.46130 13.61439 28939 ft 387 kts 336°
2026-05-07 16:44 54.48609 13.59694 28505 ft 384 kts 336°
2026-05-07 16:44 54.51073 13.57959 28128 ft 380 kts 335°
2026-05-07 16:44 54.53468 13.56269 27816 ft 374 kts 335°
2026-05-07 16:45 54.55866 13.54575 27403 ft 372 kts 335°
2026-05-07 16:45 54.57888 13.53144 27053 ft 370 kts 336°
2026-05-07 16:45 54.60083 13.51586 26706 ft 367 kts 336°
2026-05-07 16:45 54.62443 13.49915 26297 ft 365 kts 336°
2026-05-07 16:46 54.64232 13.48646 25991 ft 364 kts 336°
2026-05-07 16:46 54.65629 13.47653 25758 ft 362 kts 336°
2026-05-07 16:46 54.66853 13.46783 25557 ft 361 kts 336°
2026-05-07 16:46 54.68146 13.45876 25348 ft 360 kts 336°
2026-05-07 16:47 54.69428 13.45002 25143 ft 358 kts 335°
2026-05-07 16:47 54.70717 13.43829 24771 ft 358 kts 321°
2026-05-07 16:47 54.71617 13.42402 24537 ft 355 kts 306°
2026-05-07 16:47 54.72544 13.39635 24404 ft 345 kts 288°
2026-05-07 16:48 54.73006 13.35679 24109 ft 339 kts 276°
2026-05-07 16:48 54.73249 13.32216 23803 ft 337 kts 277°
2026-05-07 16:48 54.73628 13.28221 23402 ft 336 kts 280°
2026-05-07 16:48 54.74134 13.24294 23031 ft 333 kts 283°
2026-05-07 16:49 54.74732 13.20436 22675 ft 330 kts 285°
2026-05-07 16:49 54.75381 13.16639 22333 ft 327 kts 286°
2026-05-07 16:49 54.76052 13.12892 21970 ft 325 kts 287°
2026-05-07 16:49 54.76732 13.09172 21633 ft 323 kts 287°
2026-05-07 16:50 54.77410 13.05484 21288 ft 320 kts 287°
2026-05-07 16:50 54.78082 13.01818 20942 ft 318 kts 287°
2026-05-07 16:50 54.78748 12.98175 20611 ft 316 kts 287°
2026-05-07 16:50 54.79335 12.94516 20271 ft 314 kts 279°
2026-05-07 16:51 54.79510 12.90765 19969 ft 311 kts 268°
2026-05-07 16:51 54.79419 12.88295 19763 ft 310 kts 265°
2026-05-07 16:51 54.79163 12.83330 19329 ft 308 kts 265°
2026-05-07 16:51 54.78969 12.79641 19006 ft 307 kts 265°
2026-05-07 16:52 54.78845 12.77205 18792 ft 306 kts 265°
2026-05-07 16:52 54.78665 12.73531 18463 ft 306 kts 265°
2026-05-07 16:52 54.78488 12.69869 18107 ft 305 kts 265°
2026-05-07 16:52 54.78311 12.66215 17755 ft 303 kts 265°
2026-05-07 16:53 54.78253 12.61414 17287 ft 301 kts 283°
2026-05-07 16:53 54.79064 12.58127 17026 ft 296 kts 305°
2026-05-07 16:53 54.79970 12.56303 16811 ft 295 kts 314°
2026-05-07 16:53 54.81430 12.53815 16511 ft 295 kts 315°
2026-05-07 16:54 54.82915 12.51332 16201 ft 298 kts 315°
2026-05-07 16:54 54.84416 12.48816 15884 ft 303 kts 315°
2026-05-07 16:54 54.85939 12.46243 15546 ft 307 kts 315°
2026-05-07 16:54 54.87469 12.43642 15216 ft 307 kts 315°
2026-05-07 16:55 54.89082 12.41245 14864 ft 306 kts 332°
2026-05-07 16:55 54.91109 12.40274 14555 ft 301 kts 355°
2026-05-07 16:55 54.93192 12.40084 14094 ft 300 kts 357°
2026-05-07 16:55 54.95280 12.39952 13540 ft 300 kts 358°
2026-05-07 16:56 54.97335 12.39829 13047 ft 298 kts 358°
2026-05-07 16:56 54.99425 12.39695 12549 ft 295 kts 358°
2026-05-07 16:56 55.03476 12.39411 11534 ft 292 kts 358°
2026-05-07 16:57 55.05524 12.39258 11023 ft 290 kts 358°
2026-05-07 16:57 55.07508 12.39107 10540 ft 288 kts 358°
2026-05-07 16:57 55.09507 12.38952 10059 ft 287 kts 358°
2026-05-07 16:57 55.11495 12.38797 9556 ft 284 kts 358°
2026-05-07 16:58 55.13457 12.38642 9095 ft 280 kts 358°
2026-05-07 16:58 55.15395 12.38489 8636 ft 277 kts 358°
2026-05-07 16:58 55.17302 12.38338 8224 ft 272 kts 358°
2026-05-07 16:58 55.19188 12.38189 7747 ft 270 kts 358°
2026-05-07 16:59 55.21057 12.38040 7280 ft 268 kts 358°
2026-05-07 16:59 55.22910 12.37893 6837 ft 265 kts 358°
2026-05-07 16:59 55.24749 12.37746 6397 ft 263 kts 357°
2026-05-07 16:59 55.26568 12.37601 5931 ft 261 kts 357°
2026-05-07 17:00 55.28381 12.37456 5535 ft 261 kts 357°
2026-05-07 17:00 55.30208 12.37310 5037 ft 267 kts 357°
2026-05-07 17:00 55.32054 12.37162 4722 ft 265 kts 358°
2026-05-07 17:00 55.33888 12.37015 4409 ft 262 kts 357°
2026-05-07 17:01 55.35674 12.36872 4301 ft 252 kts 357°
2026-05-07 17:01 55.37399 12.36733 4178 ft 244 kts 358°
2026-05-07 17:01 55.39068 12.36599 4048 ft 237 kts 357°
2026-05-07 17:01 55.40678 12.36470 4000 ft 226 kts 357°
2026-05-07 17:02 55.42205 12.36347 3977 ft 214 kts 358°
2026-05-07 17:02 55.43626 12.36645 3965 ft 205 kts 26°
2026-05-07 17:02 55.44766 12.38142 3849 ft 206 kts 37°
2026-05-07 17:02 55.45878 12.39711 3577 ft 202 kts 38°
2026-05-07 17:03 55.46937 12.41288 3309 ft 197 kts 39°
2026-05-07 17:03 55.47951 12.42852 3033 ft 190 kts 40°
2026-05-07 17:03 55.48905 12.44334 2787 ft 176 kts 40°
2026-05-07 17:03 55.49791 12.45713 2545 ft 164 kts 40°
2026-05-07 17:04 55.50617 12.46997 2311 ft 153 kts 40°
2026-05-07 17:04 55.51383 12.48189 2161 ft 141 kts 39°
2026-05-07 17:04 55.52107 12.49312 1954 ft 137 kts 39°
2026-05-07 17:04 55.52816 12.50413 1760 ft 135 kts 40°
2026-05-07 17:05 55.53527 12.51517 1571 ft 137 kts 40°
2026-05-07 17:05 55.54217 12.52589 1391 ft 137 kts 40°
2026-05-07 17:05 55.54928 12.53692 1200 ft 137 kts 40°
2026-05-07 17:05 55.55640 12.54804 1048 ft 137 kts 41°
2026-05-07 17:06 55.56355 12.55925 827 ft 137 kts 40°
2026-05-07 17:06 55.57057 12.57036 629 ft 134 kts 40°
2026-05-07 17:06 55.57757 12.58118 423 ft 134 kts 39°
2026-05-07 17:06 55.58466 12.59186 259 ft 134 kts 38°
2026-05-07 17:07 55.59158 12.60256 104 ft 131 kts 38°
2026-05-07 17:07 55.59827 12.61280 22 ft 116 kts 39°
2026-05-07 17:07 55.60344 12.62083 22 ft 82 kts 41°
2026-05-07 17:07 55.60700 12.62636 25 ft 62 kts 41°
2026-05-07 17:08 55.61000 12.63099 27 ft 52 kts 41°
2026-05-07 17:08 55.61248 12.63482 27 ft 44 kts 41°
2026-05-07 17:08 55.61464 12.63815 24 ft 31 kts 41°
2026-05-07 17:08 55.61567 12.63949 26 ft 14 kts 12°
2026-05-07 17:09 55.61665 12.63947 26 ft 14 kts 355°
2026-05-07 17:09 55.61759 12.63937 23 ft 13 kts
2026-05-07 17:09 55.61837 12.64013 23 ft 13 kts 38°
2026-05-07 17:09 55.61909 12.64100 25 ft 12 kts 26°
2026-05-07 17:10 55.61987 12.64165 23 ft 12 kts 25°
2026-05-07 17:10 55.62062 12.64228 23 ft 12 kts 25°
2026-05-07 17:10 55.62139 12.64291 24 ft 13 kts 25°
2026-05-07 17:10 55.62234 12.64378 22 ft 17 kts 39°
2026-05-07 17:11 55.62291 12.64556 22 ft 16 kts 66°
2026-05-07 17:11 55.62336 12.64736 26 ft 13 kts 66°
2026-05-07 17:11 55.62355 12.64825 23 ft 7 kts 81°
2026-05-07 17:11 55.62339 12.64907 27 ft 8 kts 119°
2026-05-07 17:12 55.62301 12.65013 25 ft 12 kts 123°
2026-05-07 17:12 55.62277 12.65133 23 ft 10 kts 78°
2026-05-07 17:12 55.62329 12.65204 23 ft 10 kts
2026-05-07 17:12 55.62397 12.65202 25 ft 10 kts 358°
2026-05-07 17:13 55.62463 12.65189 25 ft 9 kts 350°
2026-05-07 17:13 55.62526 12.65185 23 ft 9 kts
2026-05-07 17:13 55.62585 12.65184 24 ft 8 kts 355°
2026-05-07 17:13 55.62639 12.65202 23 ft 8 kts 41°
2026-05-07 17:14 55.62677 12.65239 23 ft 6 kts 12°
2026-05-07 17:14 55.62712 12.65247 23 ft 4 kts
2026-05-07 17:14 55.62728 12.65250 23 ft 1 kts
2026-05-07 17:14 55.62730 12.65251 23 ft 0 kts